Powrót do katalogu

KUIPER-00380

AktywnyŁącznośćLEO
NORAD 68920·PAYLOAD·🇺🇸 United States

Wystrzelony Apr 30, 2026 z Guiana Space Centre

Loading…

Następne Przeloty (najbliższe 24 godziny)

TLE

ŚwieżeSource: CelesTrak SupGP

Epoka: Sep 14, 2026, 21:26 UTC

1 68920C 26098B   26257.89346065  .00005188  00000+0  67929-3 0  2577
2 68920  51.8989  13.9813 0000501  95.7656  92.5633 14.79917533    14

Śledź KUIPER-00380 w czasie rzeczywistym z AllMySat

Download on the App Store